GW3210 Weather Reports


time (UTC)temp
C
wind
direction
speed
KPH
gust
KPH
rain 1hr
cm
rain 24hr
cm
rain mn
cm
humidity
%
barometer
mb
20260507015116 16 293 9.7 17.7 0.00 0.00 0.00 56 1021.9
20260507014115 16 315 11.3 17.7 0.00 0.00 0.00 55 1022.1
20260507013115 16 338 9.7 16.1 0.00 0.00 0.00 55 1022.1
20260507012115 16 315 12.9 19.3 0.00 0.00 0.00 54 1022.1
20260507011116 17 338 6.4 11.3 0.00 0.00 0.00 54 1022.2
20260507010115 17 315 9.7 17.7 0.00 0.00 0.00 54 1022.2
20260507005115 17 0 6.4 12.9 0.00 0.00 0.00 53 1022.1
20260507004115 18 45 3.2 8.0 0.00 0.00 0.00 54 1022.1
20260507003115 18 293 4.8 6.4 0.00 0.00 0.00 54 1022.1
20260507002115 18 23 3.2 6.4 0.00 0.00 0.00 55 1022.1
20260507001116 18 23 3.2 6.4 0.00 0.00 0.00 55 1022.1
20260507000115 18 338 4.8 6.4 0.00 0.00 0.00 55 1022.2
20260506235115 18 293 4.8 8.0 0.00 0.00 0.00 54 1022.1
20260506234135 18 315 3.2 6.4 0.00 0.00 0.00 53 1022.1
20260506233118 18 293 4.8 6.4 0.00 0.00 0.00 52 1022.1
20260506232117 19 270 6.4 9.7 0.00 0.00 0.00 51 1022.1
20260506231117 19 338 1.6 3.2 0.00 0.00 0.00 52 1022.1
20260506230117 18 293 3.2 6.4 0.00 0.00 0.00 53 1022.2
20260506225118 18 293 3.2 6.4 0.00 0.00 0.00 53 1022.3
20260506224118 18 315 3.2 8.0 0.00 0.00 0.00 53 1022.3
20260506223137 18 338 6.4 9.7 0.00 0.00 0.00 54 1022.5
20260506222118 18 338 3.2 6.4 0.00 0.00 0.00 53 1022.6
20260506221138 18 338 3.2 3.2 0.00 0.00 0.00 53 1022.6
20260506220117 17 0 3.2 4.8 0.00 0.00 0.00 55 1022.6
20260506215118 17 23 1.6 4.8 0.00 0.00 0.00 54 1022.7
20260506214138 18 23 1.6 3.2 0.00 0.00 0.00 52 1022.6
20260506213137 18 23 3.2 4.8 0.00 0.00 0.00 55 1022.7
20260506212138 18 68 1.6 6.4 0.00 0.00 0.00 53 1023.1
20260506211117 17 270 3.2 4.8 0.00 0.00 0.00 56 1023.1
20260506210137 17 315 3.2 6.4 0.00 0.00 0.00 56 1023.1
20260506205117 17 248 4.8 9.7 0.00 0.00 0.00 56 1023.1
20260506204117 17 338 6.4 11.3 0.00 0.00 0.00 57 1023.0
20260506203117 17 293 3.2 6.4 0.00 0.00 0.00 56 1023.0
20260506202117 16 158 1.6 3.2 0.00 0.00 0.00 57 1023.0
20260506201117 16 270 3.2 6.4 0.00 0.00 0.00 56 1023.0
20260506200117 16 293 4.8 9.7 0.00 0.00 0.00 57 1023.1
20260506195138 16 315 1.6 3.2 0.00 0.00 0.00 58 1023.2
20260506194117 16 225 3.2 4.8 0.00 0.00 0.00 57 1023.2
20260506193158 16 270 4.8 6.4 0.00 0.00 0.00 57 1023.2
20260506192117 16 293 6.4 11.3 0.00 0.00 0.00 57 1023.1
20260506191116 16 270 8.0 11.3 0.00 0.00 0.00 57 1023.1
20260506190118 16 338 3.2 4.8 0.00 0.00 0.00 59 1023.0
20260506185137 15 315 3.2 6.4 0.00 0.00 0.00 58 1023.1
20260506184138 15 270 4.8 6.4 0.00 0.00 0.00 57 1023.0
20260506183116 15 338 1.6 3.2 0.00 0.00 0.00 59 1022.8
20260506182117 15 315 3.2 6.4 0.00 0.00 0.00 59 1023.1
20260506181117 15 293 4.8 9.7 0.00 0.00 0.00 60 1023.1
20260506180117 14 315 3.2 4.8 0.00 0.00 0.00 59 1023.0
20260506175117 15 315 3.2 6.4 0.00 0.00 0.00 59 1023.0
20260506174117 15 338 3.2 4.8 0.00 0.00 0.00 59 1022.8
20260506173117 15 338 4.8 6.4 0.00 0.00 0.00 59 1022.6
20260506172117 14 293 3.2 4.8 0.00 0.00 0.00 60 1022.7
20260506171117 14 315 3.2 4.8 0.00 0.00 0.00 60 1022.7
20260506170117 13 338 6.4 9.7 0.00 0.00 0.00 61 1022.6
20260506165117 13 315 4.8 8.0 0.00 0.00 0.00 61 1022.8
20260506164117 13 270 4.8 8.0 0.00 0.00 0.00 60 1022.7
20260506163117 13 0 6.4 11.3 0.00 0.00 0.00 61 1022.8
20260506162117 13 315 4.8 8.0 0.00 0.00 0.00 62 1022.5
20260506161116 13 315 3.2 4.8 0.00 0.00 0.00 62 1022.3
20260506160116 13 0.0 3.2 0.00 0.00 0.00 63 1022.1
20260506155136 12 158 1.6 3.2 0.00 0.00 0.00 64 1021.8
20260506154117 12 0 3.2 4.8 0.00 0.00 0.00 65 1021.9
20260506153117 12 315 4.8 6.4 0.00 0.00 0.00 65 1022.3
20260506152116 12 293 4.8 9.7 0.00 0.00 0.00 66 1022.5
20260506151117 11 293 8.0 12.9 0.00 0.00 0.00 66 1022.7
20260506150117 11 315 9.7 14.5 0.00 0.00 0.00 66 1022.5
20260506145116 11 338 9.7 14.5 0.00 0.00 0.00 66 1022.3
20260506144137 11 293 6.4 9.7 0.00 0.00 0.00 66 1022.3
20260506143117 12 315 6.4 12.9 0.00 0.00 0.00 66 1022.1
20260506142116 12 0 6.4 9.7 0.00 0.00 0.00 66 1021.9
20260506141117 12 338 4.8 6.4 0.00 0.00 0.00 66 1021.8
20260506140116 12 293 3.2 6.4 0.00 0.00 0.00 66 1021.9
20260506135117 12 293 6.4 8.0 0.00 0.00 0.00 66 1021.7
20260506134116 12 0 4.8 8.0 0.00 0.00 0.00 66 1021.7
20260506133116 12 315 1.6 4.8 0.00 0.00 0.00 66 1021.7
20260506132116 12 293 3.2 3.2 0.00 0.00 0.00 66 1021.4
20260506131116 12 293 1.6 1.6 0.00 0.00 0.00 66 1021.2
20260506130136 12 293 1.6 1.6 0.00 0.00 0.00 67 1021.2
20260506125116 12 293 3.2 4.8 0.00 0.00 0.00 66 1021.0
20260506124137 12 315 1.6 3.2 0.00 0.00 0.00 66 1021.1
20260506123116 12 0.0 1.6 0.00 0.00 0.00 66 1021.0
20260506122116 12 315 6.4 9.7 0.00 0.00 0.00 66 1021.1
20260506121116 12 293 3.2 6.4 0.00 0.00 0.00 66 1021.0
20260506120117 12 293 6.4 9.7 0.00 0.00 0.00 66 1021.0
20260506115116 12 293 4.8 4.8 0.00 0.00 0.00 66 1020.8
20260506114116 12 293 4.8 6.4 0.00 0.00 0.00 66 1020.7
20260506113116 12 315 6.4 11.3 0.00 0.00 0.00 66 1020.6
20260506112116 12 315 4.8 11.3 0.00 0.00 0.00 66 1020.6
20260506111116 12 315 6.4 8.0 0.00 0.00 0.00 66 1020.6
20260506110117 12 315 6.4 8.0 0.00 0.00 0.00 66 1020.4
20260506105116 12 315 6.4 8.0 0.00 0.00 0.00 66 1020.3
20260506104116 12 315 4.8 6.4 0.00 0.00 0.00 66 1020.1
20260506103116 12 293 4.8 6.4 0.00 0.00 0.00 66 1020.1
20260506102116 12 293 4.8 6.4 0.00 0.00 0.00 66 1020.0
20260506101116 12 270 4.8 9.7 0.00 0.00 0.00 65 1019.9
20260506100117 12 293 4.8 9.7 0.00 0.00 0.00 65 1019.9
20260506095115 12 315 4.8 6.4 0.00 0.00 0.00 66 1019.8
20260506094116 12 293 3.2 4.8 0.00 0.00 0.00 65 1019.8
20260506093116 12 315 3.2 4.8 0.00 0.00 0.00 65 1019.8
20260506092116 12 270 4.8 6.4 0.00 0.00 0.00 65 1019.7
20260506091116 12 315 6.4 8.0 0.00 0.00 0.00 65 1019.7
20260506090116 12 315 4.8 6.4 0.00 0.00 0.00 65 1019.7
20260506085115 12 315 4.8 6.4 0.00 0.00 0.00 64 1019.7
20260506084116 13 293 6.4 9.7 0.00 0.00 0.00 64 1019.7
20260506083136 13 293 4.8 6.4 0.00 0.00 0.00 64 1019.7
20260506082116 13 293 4.8 8.0 0.00 0.00 0.00 64 1019.7
20260506081115 13 315 3.2 6.4 0.00 0.00 0.00 64 1019.5
20260506080115 13 293 4.8 8.0 0.00 0.00 0.00 64 1019.5
20260506073115 13 293 3.2 4.8 0.00 0.00 0.00 64 1019.2
20260506072116 13 315 1.6 8.0 0.00 0.00 0.00 64 1019.1
20260506071116 13 293 3.2 4.8 0.00 0.00 0.00 63 1019.1
20260506070137 13 293 3.2 4.8 0.00 0.00 0.00 63 1019.1
20260506062136 14 293 3.2 4.8 0.00 0.00 0.00 63 1019.0
20260506061116 15 293 3.2 4.8 0.00 0.00 0.00 63 1018.9
20260506060116 14 0.0 0.0 0.00 0.00 0.00 62 1018.6
20260506051116 14 0.0 1.6 0.00 0.00 0.00 62 1018.4
20260506050116 14 0.0 0.0 0.00 0.00 0.00 62 1018.3
20260506045116 14 0.0 0.0 0.00 0.00 0.00 63 1018.4
20260506044116 14 0.0 0.0 0.00 0.00 0.00 62 1018.1
20260506043116 14 0.0 0.0 0.00 0.00 0.00 62 1018.0
20260506042116 15 338 1.6 1.6 0.00 0.00 0.00 61 1017.9
20260506041116 15 0.0 1.6 0.00 0.00 0.00 60 1017.7
20260506040116 15 0.0 0.0 0.00 0.00 0.00 60 1017.6
20260506035116 15 0.0 0.0 0.00 0.00 0.00 60 1017.5
20260506034116 15 338 1.6 3.2 0.00 0.00 0.00 60 1017.5
20260506033116 15 0.0 1.6 0.00 0.00 0.00 60 1017.4
20260506032115 15 0.0 0.0 0.00 0.00 0.00 60 1017.4
20260506031116 15 0.0 1.6 0.00 0.00 0.00 59 1017.2
20260506030116 15 0.0 0.0 0.00 0.00 0.00 59 1017.3
20260506025115 15 0.0 1.6 0.00 0.00 0.00 58 1017.1
20260506024115 15 0.0 0.0 0.00 0.00 0.00 58 1017.0
20260506023136 16 338 1.6 1.6 0.00 0.00 0.00 58 1017.1
20260506022115 16 0.0 0.0 0.00 0.00 0.00 58 1017.0
20260506021116 16 0.0 1.6 0.00 0.00 0.00 58 1016.9
20260506020116 16 0.0 0.0 0.00 0.00 0.00 58 1017.0